Theta_e
314 314 314 314 314 314 314 314 314 314 314 314 314 314 314 313 313 313 313 314 314 314 314 314 314 314 314 314 314 314 314 315 315 316 317 319 320 321 321 320 319 318
314 314 314 314 314 314 314 314 314 314 314 314 314 314 314 314 313 314 314 314 314 314 314 314 314 314 314 314 313 313 313 313 313 313 314 315 315 316 317 317 317 316
314 314 314 314 314 314 314 314 314 314 314 314 314 314 314 314 314 314 314 314 314 314 314 313 314 313 313 313 313 313 313 313 313 313 313 312 313 313 313 313 313 313
314 314 314 314 314 314 314 314 314 314 314 314 314 314 314 314 314 314 314 314 314 314 313 314 314 313 313 313 313 313 313 313 313 313 313 313 312 312 312 312 312 311
314 314 314 314 314 314 314 314 314 314 314 314 314 314 314 314 314 314 314 314 314 314 314 314 313 313 314 313 313 313 313 313 313 313 313 313 312 312 312 311 312 311
314 314 313 313 314 313 313 314 313 314 314 314 314 314 314 314 314 314 314 314 314 314 314 314 314 314 313 313 313 313 313 313 313 313 313 313 312 312 312 312 311 311
313 314 314 313 313 313 313 313 313 314 314 314 314 314 314 314 314 314 314 314 314 314 314 313 314 313 313 313 313 313 313 313 313 313 312 313 312 312 312 312 311 311
313 313 313 313 313 313 314 313 313 314 313 313 313 313 313 313 314 314 314 314 314 313 313 313 313 313 313 313 312 312 313 313 312 312 312 312 312 312 312 311 311 311
311 311 311 312 312 312 313 313 313 313 313 313 313 313 313 313 313 313 313 313 313 313 314 313 313 313 313 313 313 313 313 313 312 312 312 312 311 311 311 311 311 311
310 310 310 310 310 310 310 310 311 312 312 312 312 312 313 312 312 312 312 313 313 313 313 313 313 313 313 313 313 313 313 313 313 312 312 312 312 311 311 310 311 311
310 309 309 309 308 308 308 308 309 309 309 310 311 311 311 311 312 312 312 312 312 312 312 312 312 313 313 313 313 313 313 313 313 313 313 312 312 312 311 310 310 310
309 308 308 307 307 307 306 307 307 307 307 308 308 309 309 310 310 310 311 311 311 311 312 312 312 312 312 313 313 312 312 312 313 312 312 312 312 311 311 310 310 310
307 307 306 306 305 305 305 305 305 305 305 305 306 306 306 307 308 309 310 310 311 311 311 311 311 311 312 312 312 312 312 312 312 312 312 312 312 311 311 310 310 310
305 305 305 304 304 304 304 304 304 304 303 303 303 304 304 304 305 306 307 308 309 310 310 311 311 311 311 311 311 312 312 312 312 311 311 311 311 311 310 310 309 309
304 304 303 303 303 303 303 303 303 303 303 302 302 303 303 303 303 304 305 305 306 307 308 309 310 310 310 311 311 311 311 311 311 311 311 311 311 311 310 310 309 309
302 302 302 302 302 302 302 302 302 302 302 301 302 302 302 302 302 303 303 304 304 305 305 306 307 308 309 309 310 310 310 310 311 311 310 310 310 310 310 309 309 309
301 301 301 301 301 301 301 301 301 301 301 301 301 301 301 301 301 302 302 303 303 303 304 305 305 306 306 307 308 308 309 309 310 310 310 310 309 309 309 309 309 308
301 301 300 300 300 300 300 300 300 300 300 300 300 300 300 300 300 301 301 301 302 302 302 303 304 305 305 306 306 307 307 307 308 308 309 309 309 309 308 308 308 308
300 300 300 300 300 300 300 300 300 300 300 300 300 300 300 300 300 300 300 301 301 301 302 302 303 304 304 305 305 305 305 306 306 307 307 308 308 308 307 307 307 306
300 300 300 300 300 300 300 300 300 300 300 300 299 300 299 300 299 300 300 300 300 300 300 301 301 302 303 304 304 304 305 305 305 305 306 306 307 307 307 306 306 305
299 299 299 299 299 299 299 299 299 299 299 299 299 299 299 299 299 299 299 300 300 300 300 300 300 301 302 303 304 304 304 304 304 304 305 305 305 305 305 305 305 304
298 298 298 298 298 298 298 298 298 298 298 298 298 298 298 298 298 299 299 299 299 299 299 299 300 300 301 302 304 304 304 304 303 304 304 304 304 304 304 304 304 303
297 297 297 297 297 297 297 297 297 297 296 296 296 297 297 297 297 297 297 297 298 299 300 300 300 300 301 302 303 304 304 303 303 303 303 303 303 303 303 302 302 301
296 296 296 296 296 296 296 296 296 296 296 296 296 296 296 296 295 296 296 296 296 297 299 300 300 300 301 302 303 303 303 303 302 302 302 302 302 302 301 300 300 300
296 296 296 295 295 295 295 295 295 295 295 295 295 295 295 295 295 295 295 295 295 295 297 298 300 300 300 301 302 302 302 302 301 301 301 301 301 300 299 298 298 298
295 295 295 295 295 294 294 294 294 294 294 294 294 294 294 294 294 295 295 294 295 294 295 296 298 300 300 300 301 301 301 300 300 300 300 299 299 298 297 297 297 297
Wind_Speed
9 10 10 11 11 12 12 12 13 14 15 16 16 16 16 16 16 16 18 19 20 22 23 23 24 25 26 27 28 29 31 33 35 36 37 39 40 39 40 43 46 47
11 11 12 12 12 13 13 14 14 14 15 15 15 15 15 15 16 16 17 18 20 21 22 23 24 25 26 27 28 29 30 31 33 33 35 38 39 41 42 44 46 47
13 13 13 14 14 14 14 14 15 16 16 16 16 16 16 16 16 17 17 18 20 20 21 22 23 24 26 27 28 30 31 32 33 33 35 37 38 40 41 43 44 45
14 15 15 15 15 15 15 15 15 16 17 17 18 18 18 18 18 18 19 20 21 21 21 22 23 24 25 26 27 29 30 31 32 32 35 37 38 39 40 41 42 43
15 16 16 16 16 16 16 16 16 17 18 18 19 19 20 20 20 20 21 22 23 24 24 24 25 25 26 27 28 29 30 31 31 32 34 36 37 38 39 40 41 42
14 14 15 15 16 16 16 16 17 18 18 19 19 20 21 21 21 21 21 22 24 25 26 26 26 26 27 28 29 31 31 32 32 32 35 37 37 38 38 39 41 42
12 13 14 15 15 16 16 17 18 18 19 19 20 20 21 22 22 22 23 23 24 25 26 27 27 28 28 29 31 32 33 34 34 35 37 38 38 39 39 39 41 42
13 13 14 14 15 16 16 17 18 19 20 21 21 21 22 22 23 23 24 25 25 26 27 27 28 29 29 31 32 34 35 36 36 37 39 40 40 41 41 40 41 41
14 15 16 16 17 17 18 19 20 20 21 22 22 23 23 24 24 25 25 26 26 27 27 28 29 30 31 32 34 35 36 37 38 39 41 42 43 43 43 42 42 42
17 18 19 19 20 20 21 22 22 23 24 24 25 25 25 25 26 26 27 28 28 28 29 29 29 30 31 32 33 34 36 37 39 40 42 43 44 45 44 43 43 44
18 19 20 20 21 21 22 22 23 24 24 25 26 27 27 27 28 28 29 29 30 30 31 31 31 31 31 32 32 33 35 36 38 39 41 42 43 44 44 44 43 44
19 19 20 21 21 22 23 23 23 24 24 25 26 26 27 27 28 29 29 30 30 30 31 32 32 33 33 34 34 34 35 36 37 39 40 41 42 43 44 44 43 43
19 20 20 21 22 23 24 24 25 26 26 27 27 28 28 28 28 29 29 30 30 31 31 32 33 34 35 35 36 36 36 37 38 39 41 41 42 43 43 43 42 42
19 20 21 22 23 24 25 26 27 28 29 29 30 30 31 31 31 31 31 30 31 31 32 32 33 34 34 35 36 36 37 38 38 39 41 42 43 43 43 42 42 41
21 22 23 24 25 26 27 28 28 29 30 30 31 31 32 32 33 33 33 33 33 32 32 33 34 34 34 35 35 37 37 38 39 39 40 41 42 43 44 43 42 41
22 23 24 25 26 27 28 29 30 31 31 32 33 33 34 34 35 35 35 36 36 36 35 35 35 34 34 34 34 35 37 38 40 40 40 40 41 42 43 43 43 42
24 24 26 27 28 29 29 30 31 32 33 34 35 36 36 37 38 38 39 39 40 41 40 39 38 37 36 35 34 34 34 36 39 41 41 41 41 41 42 43 42 42
25 26 27 27 28 30 30 31 33 33 34 35 36 37 38 39 40 41 42 42 43 44 45 45 44 42 41 39 38 35 34 35 37 39 41 42 42 42 42 42 42 41
26 26 27 28 29 30 31 31 33 34 35 36 37 38 39 40 41 42 43 44 45 46 47 48 47 47 45 44 43 41 38 37 37 38 39 41 42 42 42 42 41 41
26 27 28 29 29 30 31 32 33 34 35 36 37 38 39 39 40 41 43 44 45 46 48 49 48 48 48 47 46 44 42 40 40 40 40 40 41 42 42 42 41 39
28 29 30 31 31 32 33 34 34 35 36 37 38 38 39 39 40 41 42 42 44 45 47 48 49 49 49 49 48 46 45 44 43 42 42 41 41 41 41 42 41 39
29 31 31 32 33 34 35 35 36 36 37 38 39 39 39 39 40 41 41 42 43 44 45 46 47 48 48 49 49 47 46 45 44 43 43 42 41 41 40 40 39 38
29 31 32 33 34 35 36 37 37 37 37 38 39 40 40 40 40 41 41 42 43 43 45 46 46 47 48 48 48 47 46 45 44 43 43 43 41 40 39 39 38 36
30 32 34 35 36 37 38 38 38 38 39 39 40 42 42 42 43 43 43 43 43 44 45 46 47 47 47 48 48 47 45 44 43 42 43 42 41 39 38 37 36 35
31 33 34 36 37 38 39 40 40 40 41 41 42 43 44 45 45 46 46 45 44 44 45 46 47 47 47 47 47 46 44 42 41 40 41 41 39 38 36 35 34 33
32 33 35 36 37 39 39 40 41 41 42 43 43 44 45 45 45 46 47 47 46 46 46 46 47 47 47 47 47 46 43 40 38 38 38 38 37 35 34 34 34 33
Wind_Direction
19 11 6 1 354 346 337 327 316 309 304 300 297 295 292 290 287 284 282 280 279 277 276 275 273 271 269 268 267 265 263 260 259 259 258 259 262 264 266 268 268 268
4 359 356 353 351 348 343 339 331 320 313 305 300 296 293 291 287 285 284 283 282 281 282 281 280 279 278 276 275 274 272 271 270 269 265 262 262 262 264 266 267 268
351 348 346 343 341 339 336 335 331 325 321 314 308 302 297 293 290 288 288 286 284 284 284 284 285 285 285 285 284 282 280 278 278 276 273 271 269 268 268 269 268 268
345 342 342 340 337 336 333 330 326 323 323 321 318 314 309 303 299 296 293 290 289 288 287 287 287 287 287 287 286 285 285 284 284 282 279 278 276 274 274 272 272 271
343 342 343 342 340 340 336 332 328 324 322 322 322 321 318 315 311 306 301 297 294 292 291 290 289 288 287 286 284 284 284 284 285 283 280 280 280 278 278 275 275 275
344 344 345 345 345 345 344 342 338 334 331 329 329 326 322 320 318 315 308 302 298 294 292 290 288 287 285 285 283 283 284 285 285 283 281 281 281 279 279 278 278 278
353 351 350 349 349 350 350 349 347 344 343 342 341 337 333 329 324 320 315 309 304 299 295 292 289 288 286 284 283 282 283 283 283 283 282 282 282 281 280 279 279 279
358 353 350 347 347 346 344 344 342 341 340 340 340 340 339 336 333 329 324 319 314 309 305 301 298 296 293 290 288 286 286 285 284 283 282 281 281 280 280 279 279 278
353 350 347 343 341 338 336 334 333 332 331 330 331 332 332 332 331 329 327 325 323 320 317 313 309 306 302 299 297 295 293 291 289 287 286 285 283 283 283 282 281 280
348 347 345 343 341 338 335 333 330 328 327 325 324 324 324 324 323 323 322 321 321 321 320 318 316 312 309 306 303 302 300 297 295 293 290 289 287 286 285 283 282 281
344 342 341 341 341 341 340 338 335 333 330 326 324 322 320 319 318 317 316 316 316 316 315 314 314 312 310 309 308 305 302 300 298 295 293 291 289 287 284 282 281 280
339 339 339 340 341 341 341 341 340 339 337 335 332 329 327 324 321 319 316 314 313 312 311 310 309 309 309 309 309 307 304 302 299 296 294 292 290 288 285 283 281 280
339 338 337 337 337 337 337 337 337 336 336 336 335 334 333 331 329 327 324 320 316 313 311 310 309 309 309 309 308 307 305 303 300 297 295 292 290 288 286 283 281 279
339 337 335 334 333 332 331 330 330 330 330 331 331 330 330 330 330 329 328 326 323 320 317 314 312 311 311 309 307 305 303 301 299 297 294 292 290 288 285 282 280 278
337 335 333 332 330 330 329 328 327 328 327 327 327 327 327 328 328 327 327 325 324 323 321 319 317 315 313 311 308 307 304 301 299 297 295 294 291 289 287 284 281 279
336 335 333 332 330 329 329 328 328 328 327 327 326 326 326 326 326 326 326 325 324 323 323 322 321 320 318 314 310 308 305 302 300 298 296 294 292 291 289 286 283 280
336 336 335 333 332 331 330 329 329 328 328 327 326 325 325 325 325 325 325 324 324 324 324 324 325 325 323 319 315 311 307 303 301 299 296 294 291 290 288 287 284 281
334 333 333 332 331 330 330 329 329 328 328 326 325 325 324 324 324 323 323 323 323 322 322 323 324 326 325 323 321 317 311 306 302 300 297 295 292 290 288 286 284 282
331 330 330 329 328 327 327 326 326 326 326 325 323 323 322 322 322 322 321 321 321 321 320 320 322 323 323 323 322 320 316 311 305 302 299 296 294 291 289 286 284 282
325 325 325 324 323 323 322 321 321 321 321 320 319 319 319 319 319 318 318 318 319 319 318 318 320 321 321 321 321 320 318 314 309 304 301 298 295 292 289 287 285 283
322 322 321 320 319 318 318 317 317 316 316 315 314 314 314 314 314 313 313 313 314 315 315 315 317 319 320 319 319 319 317 314 311 307 303 300 297 293 290 288 286 284
319 319 318 318 317 316 316 316 315 315 315 313 312 311 311 310 309 309 309 308 308 309 309 309 311 314 316 316 316 316 315 313 310 307 304 301 297 294 291 288 286 284
317 317 316 316 316 315 314 314 314 314 315 314 313 312 311 311 311 309 309 309 308 308 308 306 307 310 313 313 313 314 313 311 309 306 303 300 297 294 292 289 287 285
315 315 314 314 314 313 313 313 313 313 313 314 314 313 312 312 312 311 311 311 311 310 310 308 307 309 312 312 312 312 311 309 308 305 302 300 297 295 293 291 289 287
313 312 311 310 310 310 310 310 310 310 310 311 311 311 310 310 311 311 310 310 311 311 310 310 309 308 311 312 312 311 310 308 306 303 300 299 298 297 295 294 291 289
310 308 308 307 306 306 306 306 307 307 307 307 307 308 308 307 308 310 309 309 310 310 309 310 309 308 309 311 312 312 311 308 304 301 299 299 299 297 296 294 291 289